Regional Weather Roundup
Issued by NWS

Home | Current Version | Previous Version | Graphics & Text | Print | Product List | Glossary On
Versions: 1 2 3 4 5 6 7 8 9 10 11 12 13 14 15 16 17 18 19 20 21 22 23 24 25 26 27 28 29 30 31 32 33 34 35 36 37 38 39 40 41 42 43 44 45 46 47 48 49 50
000
ASUS45 KCYS 291210
RWRWY

WYOMING REGIONAL WEATHER ROUNDUP
NATIONAL WEATHER SERVICE CHEYENNE WY
600 AM MDT MON JUN 29 2015

NOTE:  "FAIR" INDICATES FEW OR NO CLOUDS BELOW 12,000 FEET
WITH NO SIGNIFICANT WEATHER AND/OR OBSTRUCTIONS TO VISIBILITY.

WYZ001-291300-
YELLOWSTONE NATIONAL PARK

CITY           SKY/WX    TMP DP  RH WIND       PRES   REMARKS
LK YELLOWSTONE   N/A     45  42  89 CALM      30.46R
6HR MIN TEMP:  44; 6HR MAX TEMP:  54;

W YELLOWSTONE  NOT AVBL

$$
WYZ002>013-054>058-071-098>099-291300-
NORTHERN WYOMING

CITY           SKY/WX    TMP DP  RH WIND       PRES   REMARKS
JACKSON        FAIR      52  46  82 CALM      30.35R
CODY           FAIR      66  46  48 SW7       30.23R
GREYBULL       FAIR      64  51  62 CALM      30.14R
6HR MIN TEMP:  63; 6HR MAX TEMP:  80;

WORLAND        FAIR      57  52  83 SW6       30.16R
6HR MIN TEMP:  56; 6HR MAX TEMP:  72;

SHERIDAN       FAIR      62  49  62 NE5       30.12R
6HR MIN TEMP:  57; 6HR MAX TEMP:  65;

BUFFALO        FAIR      68  44  42 W12       30.18R
6HR MIN TEMP:  67; 6HR MAX TEMP:  70;

GILLETTE       FAIR      67  53  61 CALM      30.14R
6HR MIN TEMP:  62; 6HR MAX TEMP:  74;

HULETT         FAIR      70  50  49 SE10      30.14R
NEWCASTLE      FAIR      70  45  40 MISG      30.14S

$$
WYZ014>020-022>026-101>103-291300-
CENTRAL WYOMING

CITY           SKY/WX    TMP DP  RH WIND       PRES   REMARKS
BIG PINEY      FAIR      51  40  65 E5        30.38R
6HR MIN TEMP:  50; 6HR MAX TEMP:  60;

PINEDALE       FAIR      50  46  87 W5        30.39R
DUBOIS         FAIR      50  43  76 NW12      30.40R
LANDER         FAIR      60  47  61 E3        30.24R
6HR MIN TEMP:  57; 6HR MAX TEMP:  70;

RIVERTON       FAIR      62  49  62 W6        30.25R
6HR MIN TEMP:  62; 6HR MAX TEMP:  66;

CASPER         FAIR      55  48  77 W9        30.23R
6HR MIN TEMP:  51; 6HR MAX TEMP:  60;

DOUGLAS        FAIR      56  51  84 CALM      30.21R
6HR MIN TEMP:  54; 6HR MAX TEMP:  66;


$$
WYZ021-027>030-104>119-291300-
SOUTHERN WYOMING

CITY           SKY/WX    TMP DP  RH WIND       PRES   REMARKS
EVANSTON       FAIR      62  41  46 E7        30.33R
6HR MIN TEMP:  62; 6HR MAX TEMP:  73;

KEMMERER       FAIR      59  41  51 N10G16    30.36S
FORT BRIDGER   SUNNY     59  43  55 E8        30.37R
ROCK SPRINGS   FAIR      59  42  53 NE5       30.33R
6HR MIN TEMP:  59; 6HR MAX TEMP:  68;

DIXON          FAIR      55  44  64 CALM      30.33R
RAWLINS        FAIR      52  43  71 N6        30.34R
6HR MIN TEMP:  51; 6HR MAX TEMP:  64;

SARATOGA       FAIR      50  45  81 S5        30.36R
LARAMIE        FAIR      50  47  89 CALM      30.36R
6HR MIN TEMP:  48; 6HR MAX TEMP:  64;

CHEYENNE       FAIR      59  49  69 NW9       30.26S
6HR MIN TEMP:  57; 6HR MAX TEMP:  68; 6HR PCP: TRACE;

TORRINGTON     FAIR      60  56  86 W3        30.14R
6HR MIN TEMP:  59; 6HR MAX TEMP:  70; 6HR PCP: TRACE;

PINE BLUFFS    FAIR      59  52  77 SE12G18   30.21S

$$


USA.gov is the U.S. government's official web portal to all federal, state and local government web resources and services.